Regional Weather Roundup
Issued by NWS Midland/Odessa, TX

Home | Current Version | Previous Version | Text Only | Print | Product List | Glossary On
Versions: 1 2 3 4 5 6 7 8 9 10 11 12 13 14 15 16 17 18 19 20 21 22 23 24 25 26 27 28 29 30 31 32 33 34 35 36 37 38 39 40 41 42 43 44 45 46 47 48 49 50
840
ASUS44 KMAF 231101
RWRMAF
MIDLAND AREA WEATHER ROUNDUP
NATIONAL WEATHER SERVICE MIDLAND TX
600 AM CDT WED MAY 23 2018

...IN SOUTHWEST TEXAS AND SOUTHEAST NEW MEXICO...

CITY           SKY/WX    TMP DP  RH WIND       PRES   REMARKS
ALPINE         CLEAR     65  58  80 S3        30.07S
ANDREWS        FAIR      67  61  79 SE10      30.00S
ARTESIA        CLEAR     68  63  83 E7        29.99S
BIG SPRING     CLEAR     69  63  81 SE12      30.02S
CARLSBAD       PTCLDY    67  61  81 SE5       29.96F
DRYDEN           N/A     70  65  84 E13       29.94R
FORT STOCKTON  CLEAR     68  63  84 SE21G29   29.94R
GUAD PASS      MOCLDY    62  57  83 NE16      30.07S
HOBBS          CLOUDY    64  59  82 E9        30.02S
LAMESA         FAIR      68  61  77 SE15      30.02S
MARFA          NOT AVBL
MIDLAND AIRPK    N/A     72  62  70 SE15G23   29.99R
MIDLAND INTL   CLEAR     71  63  75 SE16      29.99R
ODESSA           N/A     70  63  78 SE14      29.99R
PECOS          CLEAR     71  62  73 E13       29.92S
PRESIDIO       FAIR      74  60  60 NE8G16    29.93R
SEMINOLE       CLEAR     66  60  79 SE3       30.02R
SNYDER         CLEAR     69  64  85 SE12      30.02S
WINK             N/A    N/A N/A N/A MISG        N/A
$$
...OTHER STATIONS IN TEXAS...

CITY           SKY/WX    TMP DP  RH WIND       PRES   REMARKS
ABILENE        CLOUDY    68  64  87 S8        30.01R
AMARILLO       CLOUDY    65  58  78 S14       30.07R
AUSTIN         CLOUDY    70  69  97 CALM      29.99R
BROWNSVILLE    FAIR      76  74  93 E3        29.93R
CORPUS CHRISTI CLOUDY    74  74 100 SE3       29.94R
DALLAS FTW     PTCLDY    71  68  90 SE3       29.99R
DEL RIO        CLOUDY    73  69  87 SE10      29.95R
EL PASO        CLEAR     70  34  26 CALM      29.95R
HOUSTON INT    FAIR      71  71 100 N3        29.98R
LUBBOCK        MOCLDY    63  59  87 NW9       30.06R
SAN ANGELO     CLEAR     69  65  86 SE6       30.00R
SAN ANTONIO    MOCLDY    73  70  90 SE7       29.99R
WACO           CLEAR     70  68  93 S7        30.00R
WICHITA FALLS  PTCLDY    68  67  96 SE6       30.02R
$$
...OTHER LOCATIONS IN NEW MEXICO...

CITY           SKY/WX    TMP DP  RH WIND       PRES   REMARKS
ALAMOGORDO     PTCLDY    64  52  63 S7        29.97R
ALBUQUERQUE    CLEAR     57  43  59 N6        30.04R
CANNON AFB     MOCLDY    59  59 100 SE12      30.07S
CLOVIS         MOCLDY    59  55  87 E7        30.09S
HOLLOMAN AFB   PTCLDY    70  53  53 SE10      29.98R
ROSWELL        PTCLDY    65  63  93 CALM      29.99R
RUIDOSO        FOG       55  55 100 SE6       30.17S VSB 1/2
SANTA FE       CLEAR     54  52  93 SE10      30.10R
TRUTH OR CONSE MOCLDY    65  13  13 NW9       30.00R
TUCUMCARI      CLOUDY    66  51  58 S3        30.00R
$$




USA.gov is the U.S. government's official web portal to all federal, state and local government web resources and services.